TimeAKST,TemperatureF,Dew PointF,Humidity,Sea Level PressureIn,VisibilityMPH,Wind Direction,Wind SpeedMPH,Gust SpeedMPH,PrecipitationIn,Events,Conditions,WindDirDegrees,DateUTC
12:53 AM,12.0,7.0,80,29.52,10.0,North,5.8,-,N/A,,Overcast,350,2012-12-12 09:53:00
1:53 AM,10.9,7.0,84,29.45,3.0,ENE,6.9,-,N/A,Snow,Light Snow,70,2012-12-12 10:53:00
2:12 AM,10.4,8.6,92,29.39,2.0,NNE,3.5,-,N/A,Snow,Light Snow,30,2012-12-12 11:12:00
2:53 AM,12.0,8.1,84,29.40,2.5,North,6.9,-,N/A,Snow,Light Snow,10,2012-12-12 11:53:00
3:53 AM,14.0,10.0,84,29.37,2.0,North,4.6,-,N/A,Snow,Light Snow,360,2012-12-12 12:53:00
4:53 AM,14.0,10.9,88,29.31,1.8,Calm,Calm,-,N/A,Snow,Light Snow,0,2012-12-12 13:53:00
5:53 AM,15.1,12.0,88,29.27,1.5,NNE,4.6,-,N/A,Snow,Light Snow,20,2012-12-12 14:53:00
6:53 AM,16.0,12.9,88,29.24,1.0,North,4.6,-,N/A,Snow,Light Snow,10,2012-12-12 15:53:00
7:51 AM,17.6,14.0,86,29.17,0.5,North,5.8,-,N/A,Snow,Light Snow,360,2012-12-12 16:51:00
7:53 AM,17.1,14.0,88,29.20,0.5,North,4.6,-,N/A,Snow,Light Snow,360,2012-12-12 16:53:00
8:02 AM,17.6,14.0,86,29.16,0.5,North,4.6,-,N/A,Snow,Light Snow,360,2012-12-12 17:02:00
8:04 AM,17.6,14.0,86,29.16,0.8,North,4.6,-,N/A,Snow,Light Snow,10,2012-12-12 17:04:00
8:53 AM,18.0,15.1,88,29.18,0.8,North,4.6,-,N/A,Snow,Light Snow,360,2012-12-12 17:53:00
9:16 AM,17.6,15.8,93,29.14,1.0,Calm,Calm,-,N/A,Snow,Light Snow,0,2012-12-12 18:16:00
9:41 AM,17.6,15.8,93,29.14,0.8,Calm,Calm,-,N/A,Snow,Light Snow,0,2012-12-12 18:41:00
9:53 AM,19.0,16.0,88,29.17,0.8,Calm,Calm,-,N/A,Snow,Light Snow,0,2012-12-12 18:53:00
10:02 AM,17.6,15.8,93,29.13,1.0,NNW,3.5,-,N/A,Snow,Light Snow,340,2012-12-12 19:02:00
10:09 AM,19.4,15.8,86,29.14,2.0,North,4.6,-,N/A,Snow,Light Snow,350,2012-12-12 19:09:00
10:21 AM,19.4,15.8,86,29.13,1.8,NNW,3.5,-,N/A,Snow,Light Snow,340,2012-12-12 19:21:00
10:53 AM,19.0,16.0,88,29.17,1.2,Calm,Calm,-,N/A,Snow,Light Snow,0,2012-12-12 19:53:00
11:53 AM,19.0,16.0,88,29.16,1.5,Calm,Calm,-,N/A,Snow,Light Snow,0,2012-12-12 20:53:00
12:32 PM,19.4,15.8,86,29.12,0.8,Calm,Calm,-,N/A,Snow,Light Snow,0,2012-12-12 21:32:00
12:53 PM,19.9,17.1,89,29.16,0.8,Calm,Calm,-,N/A,Snow,Light Snow,0,2012-12-12 21:53:00
1:03 PM,19.4,17.6,93,29.12,0.5,Calm,Calm,-,N/A,Fog-Snow,Light Snow,0,2012-12-12 22:03:00
1:53 PM,19.9,17.1,89,29.15,0.5,North,4.6,-,N/A,Fog-Snow,Light Snow,350,2012-12-12 22:53:00
2:51 PM,19.4,17.6,93,29.12,0.8,North,3.5,-,N/A,Snow,Light Snow,10,2012-12-12 23:51:00
2:53 PM,19.9,17.1,89,29.15,0.8,Calm,Calm,-,N/A,Snow,Light Snow,0,2012-12-12 23:53:00
3:05 PM,19.4,17.6,93,29.12,0.8,Calm,Calm,-,N/A,Snow,Light Snow,0,2012-12-13 00:05:00
3:12 PM,19.4,17.6,93,29.12,0.8,Calm,Calm,-,N/A,Snow,Light Snow,0,2012-12-13 00:12:00
3:20 PM,19.4,17.6,93,29.12,1.0,Calm,Calm,-,N/A,Snow,Light Snow,0,2012-12-13 00:20:00
3:27 PM,19.4,17.6,93,29.12,1.0,Calm,Calm,-,N/A,Snow,Light Snow,0,2012-12-13 00:27:00
3:34 PM,19.4,17.6,93,29.12,2.0,Calm,Calm,-,N/A,Snow,Light Snow,0,2012-12-13 00:34:00
3:48 PM,19.4,17.6,93,29.11,1.0,Calm,Calm,-,N/A,Snow,Light Snow,0,2012-12-13 00:48:00
3:53 PM,19.9,17.1,89,29.14,1.0,Calm,Calm,-,N/A,Snow,Light Snow,0,2012-12-13 00:53:00
4:04 PM,19.4,17.6,93,29.10,2.0,Calm,Calm,-,N/A,Snow,Light Snow,0,2012-12-13 01:04:00
4:19 PM,19.4,17.6,93,29.10,1.5,Calm,Calm,-,N/A,Snow,Light Snow,0,2012-12-13 01:19:00
4:24 PM,19.4,17.6,93,29.10,0.8,Calm,Calm,-,N/A,Snow,Light Snow,0,2012-12-13 01:24:00
4:33 PM,19.4,17.6,93,29.10,1.0,NE,3.5,-,N/A,Snow,Light Snow,40,2012-12-13 01:33:00
4:46 PM,19.4,17.6,93,29.10,2.0,Calm,Calm,-,N/A,Snow,Light Snow,0,2012-12-13 01:46:00
4:53 PM,19.9,17.1,89,29.13,3.0,Calm,Calm,-,N/A,Snow,Light Snow,0,2012-12-13 01:53:00
4:55 PM,19.4,17.6,93,29.10,3.0,NE,3.5,-,N/A,Snow,Light Snow,40,2012-12-13 01:55:00
5:53 PM,21.0,18.0,88,29.12,3.0,Calm,Calm,-,N/A,Snow,Light Snow,0,2012-12-13 02:53:00
5:57 PM,21.2,17.6,86,29.09,2.5,Calm,Calm,-,N/A,Snow,Light Snow,0,2012-12-13 02:57:00
6:37 PM,21.2,19.4,93,29.09,3.0,NNE,3.5,-,N/A,Snow,Light Snow,30,2012-12-13 03:37:00
6:53 PM,21.9,19.0,89,29.12,6.0,NE,3.5,-,N/A,Snow,Light Snow,50,2012-12-13 03:53:00
7:20 PM,21.2,19.4,93,29.08,2.0,Calm,Calm,-,N/A,Snow,Light Snow,0,2012-12-13 04:20:00
7:26 PM,21.2,19.4,93,29.08,1.2,NNE,3.5,-,N/A,Snow,Light Snow,20,2012-12-13 04:26:00
7:34 PM,21.2,19.4,93,29.08,0.8,NNE,3.5,-,N/A,Snow,Light Snow,20,2012-12-13 04:34:00
7:48 PM,21.2,19.4,93,29.07,0.8,Calm,Calm,-,N/A,Snow,Light Snow,0,2012-12-13 04:48:00
7:53 PM,21.0,19.0,92,29.11,0.8,Calm,Calm,-,N/A,Snow,Light Snow,0,2012-12-13 04:53:00
8:53 PM,21.9,19.0,89,29.09,0.8,North,4.6,-,N/A,Snow,Light Snow,360,2012-12-13 05:53:00
9:40 PM,21.2,19.4,93,29.05,1.0,Calm,Calm,-,N/A,Snow,Light Snow,0,2012-12-13 06:40:00
9:46 PM,21.2,19.4,93,29.05,0.8,Calm,Calm,-,N/A,Snow,Light Snow,0,2012-12-13 06:46:00
9:53 PM,21.9,19.9,92,29.08,0.8,Calm,Calm,-,N/A,Snow,Light Snow,0,2012-12-13 06:53:00
10:01 PM,21.2,19.4,93,29.05,1.0,North,3.5,-,N/A,Snow,Light Snow,10,2012-12-13 07:01:00
10:19 PM,21.2,19.4,93,29.05,0.8,North,3.5,-,N/A,Snow,Light Snow,360,2012-12-13 07:19:00
10:47 PM,21.2,19.4,93,29.05,1.2,Calm,Calm,-,N/A,Snow,Light Snow,0,2012-12-13 07:47:00
10:53 PM,21.9,19.9,92,29.08,1.2,Calm,Calm,-,N/A,Snow,Light Snow,0,2012-12-13 07:53:00
11:53 PM,21.9,19.9,92,29.08,1.0,Calm,Calm,-,N/A,Snow,Light Snow,0,2012-12-13 08:53:00